NETSAT-4

Last updated on Wed Oct 29 2025 00:03:53 GMT+0000 (Coordinated Universal Time)

1 46504U 20068U 25301.47827221 .00020541 00000+0 61124-3 0 9997 2 46504 97.8587 287.7593 0009365 72.3911 287.8353 15.34716862280124
UTC large
Height (km)
Speed (km/s)
/
Latitude / Longitude
Inclination (degrees)
Orbital Period (minutes)
Azimuth
Elevation
Range (km)
Doppler Factor

Next 0 passes for location: London (51.5072 / 0.1276)

Sorry there are no passes over London.